Starlink 32367

operational
NORAD ID: 60919 Int'l Des: 2024-154 Owner: SPXS Country: US Constellation: starlink
LEOCIRCULAR

Über Starlink 32367

Beschreibung wird geladen...

Live-Position

3D-Globus wird geladen...

Nächste Überflüge

Höhenverlauf

Altitude vs Time

uPlot chart will show altitude changes over time

Zweizeiliger Elementsatz

1 60919U 24154S 25304.85003381 -.00000577 00000-0 -73773-5 0 9996
2 60919 53.1593 161.9621 0001237 104.2630 255.8508 15.30187267 66610
Epoch: 31. Okt. 2025 • Age: 8 hours

Aktueller Status

Höhe 476.9 km
Geschwindigkeit 7.63 km/s
Subsatellitenpunkt -3.06°S, 54.13°E
Startdatum 31. Aug. 2024
Alter 1.1 years
Typ internet

Technische Details

Klassifizierung Payload
Masse 730.00 kg
Trockenmasse 700.00 kg
Gesamtmasse 730.00 kg
Länge 0.30 m
Durchmesser 4.10 m
Spannweite 29.00 m
Form Box + pan
Hersteller SPXS
Bus-Typ Starlink V2M
Phasenstatus In Orbit
Besitzer/Staat SPXS/US

Große Konstellationen

Loading constellations...